Location: Churchill Northern Studies Centre
(58.7378°N, 93.8201°W)
Time: 13:42:22
(UTC-05:00)

ISS - Pass Details

Date: 09 October 2017
Orbit: 400 x 408 km, 51.6° (Epoch: 24 October)

Event Time Altitude Azimuth Distance (km) Brightness Sun altitude
Rises 19:29:51 0° 261° (W) 2,327 2.0 -9.2°
Reaches altitude 10° 19:32:17 10° 243° (WSW) 1,467 0.0 -9.6°
Maximum altitude 19:34:45 20° 195° (SSW) 1,014 -1.7 -9.9°
Drops below altitude 10° 19:37:14 10° 146° (SE) 1,468 -1.4 -10.2°
Enters shadow 19:37:47 - 140° (SE) 1,649 -1.2 -10.3°
